Location: Brno
(49.2000°N, 16.6330°E)
Time: 19:00:09
(UTC+02:00)

Transit 4A - Pass Details

Date: 31 July 2021
Orbit: 871 x 974 km, 66.8° (Epoch: 16 September)

Event Time Altitude Azimuth Distance (km) Brightness Sun altitude
Rises 05:46:02 0° 309° (NW) 3,468 10.6 2.3°
Reaches altitude 10° 05:49:56 10° 334° (NNW) 2,529 10.2 2.9°
Maximum altitude 05:52:52 14° 5° (N) 2,262 10.4 3.3°
Drops below altitude 10° 05:55:48 10° 36° (NE) 2,537 11.4 3.7°
Sets 05:59:43 0° 61° (ENE) 3,488 13.6 4.3°
